This is the latest recevied weather packets stored in our database for station/object N5AJY. If no packets are shown the sender has not sent any weather packets the latest 10 day(s).
| Time | Temp. | Humidity | Pressure | Rain* | Wind** | Luminosity | Snow |
|---|---|---|---|---|---|---|---|
| 1777751814 | 20.56° C | 35% | 1016.6 hPa | 0 mm | - | - | - |
| 1777751514 | 20.56° C | 32% | 1016.6 hPa | 0 mm | - | - | - |
| 1777751213 | 20.56° C | 34% | 1016.7 hPa | 0 mm | - | - | - |
| 1777750914 | 20.56° C | 33% | 1016.7 hPa | 0 mm | - | - | - |
| 1777750613 | 21.11° C | 36% | 1016.7 hPa | 0 mm | - | - | - |
| 1777750314 | 20.56° C | 36% | 1016.8 hPa | 0 mm | - | - | - |
| 1777750013 | 21.11° C | 34% | 1016.7 hPa | 0 mm | - | - | - |
| 1777749722 | 21.11° C | 30% | 1016.7 hPa | 0 mm | - | - | - |
| 1777749115 | 21.11° C | 38% | 1016.8 hPa | 0 mm | - | - | - |
| 1777748813 | 20.56° C | 38% | 1016.9 hPa | 0 mm | - | - | - |
| 1777748516 | 20.56° C | 36% | 1016.9 hPa | 0 mm | - | - | - |
| 1777748213 | 20.56° C | 40% | 1016.8 hPa | 0 mm | - | - | - |
| 1777747914 | 20° C | 39% | 1016.9 hPa | 0 mm | - | - | - |
| 1777747615 | 20° C | 38% | 1017 hPa | 0 mm | - | - | - |
| 1777747314 | 20° C | 39% | 1017 hPa | 0 mm | - | - | - |
| 1777747013 | 20° C | 39% | 1017 hPa | 0 mm | - | - | - |
| 1777746714 | 20° C | 42% | 1017.1 hPa | 0 mm | - | - | - |
| 1777746413 | 20° C | 42% | 1017.1 hPa | 0 mm | - | - | - |
| 1777746114 | 19.44° C | 45% | 1017.2 hPa | 0 mm | - | - | - |
| 1777745813 | 19.44° C | 44% | 1017.2 hPa | 0 mm | - | - | - |
| 1777745514 | 19.44° C | 41% | 1017.3 hPa | 0 mm | - | - | - |
| 1777745213 | 19.44° C | 42% | 1017.3 hPa | 0 mm | - | - | - |
| 1777744914 | 19.44° C | 43% | 1017.5 hPa | 0 mm | - | - | - |
| 1777744613 | 19.44° C | 44% | 1017.5 hPa | 0 mm | - | - | - |
| 1777744316 | 19.44° C | 45% | 1017.6 hPa | 0 mm | - | - | - |
* Rain latest hour (hover to see other rain measurements)
** Current wind speed in m/s (hover to see current wind gust speed)